Latest Coastal Weather Observations for Esperance Harbour

IDW60701

Issued at 9:53 pm WST Tuesday 28 March 2017 (issued every 10 minutes, with the page automatically refreshed every 10 minutes)

About coastal observations | Map of coastal stations | Coastal observations for WA | Marine services | Other Formats
Station Details ID: 109504 Name: ESPERANCE NTC AWS Lat: -33.87 Lon: 121.90 Height: 0.0 m
Data from the previous 72 hours. | See also: Recent months for locations in Western Australia
Date/Time
WST
Temp
°C
Wind Pressure Rain since
9am
mm
Weather Cloud Vis
km
Sea
Height
m
Swell
Dir  Spd
kts
Gust
kts
hPa Trend Height
m
Period
s
Dir
28/09:30pm 17.9 - - - 1018.0 - - - - - - - - -
28/09:00pm 18.1 - - - 1017.6 - - - - - - - - -
28/08:30pm 18.4 - - - 1017.4 - - - - - - - - -
28/08:00pm 18.8 - - - 1016.9 - - - - - - - - -
28/07:30pm 19.0 - - - 1016.4 - - - - - - - - -
28/07:00pm 19.1 - - - 1016.0 - - - - - - - - -
28/06:30pm 19.0 - - - 1015.6 - - - - - - - - -
28/06:00pm 19.2 - - - 1015.5 - - - - - - - - -
28/05:30pm 19.4 - - - 1015.3 - - - - - - - - -
28/05:00pm 20.0 - - - 1015.0 - - - - - - - - -
28/04:30pm 20.8 - - - 1014.6 - - - - - - - - -
28/04:00pm 20.6 - - - 1014.4 - - - - - - - - -
28/03:30pm 20.0 - - - 1014.2 - - - - - - - - -
28/03:00pm 20.2 - - - 1014.4 - - - - - - - - -
28/02:30pm 20.0 - - - 1014.3 - - - - - - - - -
28/02:00pm 19.9 - - - 1014.4 - - - - - - - - -
28/01:30pm 20.0 - - - 1014.6 - - - - - - - - -
28/01:00pm 19.9 - - - 1014.9 - - - - - - - - -
28/12:30pm 20.3 - - - 1015.1 - - - - - - - - -
28/12:00pm 19.7 - - - 1015.3 - - - - - - - - -
28/11:30am 19.2 - - - 1015.6 - - - - - - - - -
28/11:00am 18.8 - - - 1015.7 - - - - - - - - -
28/10:30am 18.7 - - - 1015.9 - - - - - - - - -
28/10:00am 18.5 - - - 1016.2 - - - - - - - - -
28/09:30am 17.5 - - - 1016.3 - - - - - - - - -
28/09:00am 16.8 - - - 1016.7 - - - - - - - - -
28/08:30am 15.6 - - - 1016.7 - - - - - - - - -
28/08:00am 14.5 - - - 1016.7 - - - - - - - - -
28/07:30am 13.3 - - - 1016.8 - - - - - - - - -
28/07:00am 12.4 - - - 1016.7 - - - - - - - - -
28/06:30am 12.0 - - - 1016.8 - - - - - - - - -
28/06:00am 12.3 - - - 1016.5 - - - - - - - - -
28/05:30am 12.4 - - - 1016.5 - - - - - - - - -
28/05:00am 12.2 - - - 1016.5 - - - - - - - - -
28/04:30am 12.0 - - - 1016.7 - - - - - - - - -
28/04:00am 12.2 - - - 1016.8 - - - - - - - - -
28/03:30am 12.2 - - - 1017.1 - - - - - - - - -
28/03:00am 12.1 - - - 1017.1 - - - - - - - - -
28/02:30am 12.3 - - - 1017.2 - - - - - - - - -
28/02:00am 12.7 - - - 1017.3 - - - - - - - - -
28/01:30am 13.3 - - - 1017.5 - - - - - - - - -
28/01:00am 13.5 - - - 1017.4 - - - - - - - - -
28/12:30am 14.0 - - - 1017.4 - - - - - - - - -
28/12:00am 14.4 - - - 1017.7 - - - - - - - - -
 
Date/Time
WST
Temp
°C
Wind Pressure Rain since
9am
mm
Weather Cloud Vis
km
Sea
Height
m
Swell
Dir  Spd
kts
Gust
kts
hPa Trend Height
m
Period
s
Dir
27/11:30pm 14.8 - - - 1017.5 - - - - - - - - -
27/11:00pm 15.2 - - - 1017.7 - - - - - - - - -
27/10:30pm 15.3 - - - 1018.0 - - - - - - - - -
27/10:00pm 15.5 - - - 1018.3 - - - - - - - - -
27/09:30pm 15.9 - - - 1018.3 - - - - - - - - -
27/09:00pm 16.4 - - - 1018.4 - - - - - - - - -
27/08:30pm 17.2 - - - 1018.4 - - - - - - - - -
27/08:00pm 17.9 - - - 1018.4 - - - - - - - - -
27/07:30pm 18.0 - - - 1018.4 - - - - - - - - -
27/07:00pm 18.3 - - - 1018.2 - - - - - - - - -
27/06:30pm 18.4 - - - 1018.0 - - - - - - - - -
27/06:00pm 18.5 - - - 1018.1 - - - - - - - - -
27/05:30pm 19.0 - - - 1018.0 - - - - - - - - -
27/05:00pm 19.3 - - - 1017.9 - - - - - - - - -
27/04:30pm 19.2 - - - 1017.8 - - - - - - - - -
27/04:00pm 19.8 - - - 1018.0 - - - - - - - - -
27/03:30pm 19.8 - - - 1018.3 - - - - - - - - -
27/03:00pm 19.4 - - - 1018.5 - - - - - - - - -
27/02:30pm 19.7 - - - 1018.6 - - - - - - - - -
27/02:00pm 19.8 - - - 1018.6 - - - - - - - - -
27/01:30pm 19.3 - - - 1019.1 - - - - - - - - -
27/01:00pm 19.6 - - - 1019.5 - - - - - - - - -
27/12:30pm 19.2 - - - 1019.8 - - - - - - - - -
27/12:00pm 18.8 - - - 1020.2 - - - - - - - - -
27/11:30am 18.9 - - - 1020.5 - - - - - - - - -
27/11:00am 18.6 - - - 1020.6 - - - - - - - - -
27/10:30am 18.7 - - - 1020.9 - - - - - - - - -
27/10:00am 18.3 - - - 1020.9 - - - - - - - - -
27/09:30am 17.9 - - - 1020.8 - - - - - - - - -
27/09:00am 18.1 - - - 1020.6 - - - - - - - - -
27/08:30am 18.1 - - - 1020.4 - - - - - - - - -
27/08:00am 17.9 - - - 1019.9 - - - - - - - - -
27/07:30am 17.6 - - - 1019.6 - - - - - - - - -
27/07:00am 17.3 - - - 1019.2 - - - - - - - - -
27/06:30am 17.2 - - - 1018.9 - - - - - - - - -
27/06:00am 17.0 - - - 1018.9 - - - - - - - - -
27/05:30am 17.2 - - - 1018.8 - - - - - - - - -
27/05:00am 17.3 - - - 1018.7 - - - - - - - - -
27/04:30am 17.3 - - - 1018.6 - - - - - - - - -
27/04:00am 17.1 - - - 1018.3 - - - - - - - - -
27/03:30am 17.6 - - - 1017.8 - - - - - - - - -
27/03:00am 17.6 - - - 1017.6 - - - - - - - - -
27/02:30am 17.8 - - - 1017.3 - - - - - - - - -
27/02:00am 17.9 - - - 1017.1 - - - - - - - - -
27/01:30am 17.8 - - - 1017.0 - - - - - - - - -
27/01:00am 17.8 - - - 1016.9 - - - - - - - - -
27/12:30am 17.9 - - - 1017.0 - - - - - - - - -
27/12:00am 17.7 - - - 1016.9 - - - - - - - - -
 
Date/Time
WST
Temp
°C
Wind Pressure Rain since
9am
mm
Weather Cloud Vis
km
Sea
Height
m
Swell
Dir  Spd
kts
Gust
kts
hPa Trend Height
m
Period
s
Dir
26/11:30pm 17.4 - - - 1016.9 - - - - - - - - -
26/11:00pm 18.0 - - - 1016.5 - - - - - - - - -
26/10:30pm 18.1 - - - 1016.3 - - - - - - - - -
26/10:00pm 18.0 - - - 1016.3 - - - - - - - - -
26/09:30pm 18.0 - - - 1016.0 - - - - - - - - -
26/09:00pm 18.3 - - - 1015.5 - - - - - - - - -
26/08:30pm 18.4 - - - 1015.6 - - - - - - - - -
26/08:00pm 17.9 - - - 1015.1 - - - - - - - - -
26/07:30pm 18.2 - - - 1014.8 - - - - - - - - -
26/07:00pm 18.4 - - - 1014.2 - - - - - - - - -
26/06:30pm 18.4 - - - 1013.6 - - - - - - - - -
26/06:00pm 18.4 - - - 1012.9 - - - - - - - - -
26/05:30pm 18.6 - - - 1012.6 - - - - - - - - -
26/05:00pm 18.8 - - - 1011.9 - - - - - - - - -
26/04:30pm 18.9 - - - 1011.3 - - - - - - - - -
26/04:00pm 19.8 - - - 1010.5 - - - - - - - - -
26/03:30pm 20.0 - - - 1010.1 - - - - - - - - -
26/03:00pm 20.2 - - - 1009.5 - - - - - - - - -
26/02:30pm 20.3 - - - 1008.9 - - - - - - - - -
26/02:00pm 20.0 - - - 1008.5 - - - - - - - - -
26/01:30pm 20.0 - - - 1008.4 - - - - - - - - -
26/01:00pm 19.5 - - - 1008.4 - - - - - - - - -
26/12:30pm 19.0 - - - 1008.3 - - - - - - - - -
26/12:00pm 18.2 - - - 1008.1 - - - - - - - - -
26/11:30am 17.8 - - - 1008.1 - - - - - - - - -
26/11:00am 17.5 - - - 1008.3 - - - - - - - - -
26/10:30am 17.8 - - - 1008.0 - - - - - - - - -
26/10:00am 20.6 - - - 1007.0 - - - - - - - - -
26/09:30am 20.7 - - - 1007.0 - - - - - - - - -
26/09:00am 20.8 - - - 1006.7 - - - - - - - - -
26/08:30am 19.9 - - - 1006.3 - - - - - - - - -
26/08:00am 19.5 - - - 1006.3 - - - - - - - - -
26/07:30am 19.3 - - - 1005.7 - - - - - - - - -
26/07:00am 19.1 - - - 1005.6 - - - - - - - - -
26/06:30am 19.5 - - - 1005.2 - - - - - - - - -
26/06:00am 19.9 - - - 1004.9 - - - - - - - - -
26/05:30am 20.1 - - - 1004.3 - - - - - - - - -
26/05:00am 20.2 - - - 1003.7 - - - - - - - - -
26/04:30am 20.2 - - - 1003.5 - - - - - - - - -
26/04:00am 20.4 - - - 1003.6 - - - - - - - - -
26/03:30am 20.6 - - - 1003.4 - - - - - - - - -
26/03:00am 20.6 - - - 1003.8 - - - - - - - - -
26/02:30am 20.2 - - - 1004.3 - - - - - - - - -
26/02:00am 20.0 - - - 1004.8 - - - - - - - - -
26/01:30am 20.1 - - - 1005.1 - - - - - - - - -
26/01:00am 20.0 - - - 1005.6 - - - - - - - - -
26/12:30am 20.2 - - - 1005.3 - - - - - - - - -
26/12:00am 20.3 - - - 1005.6 - - - - - - - - -
 
Date/Time
WST
Temp
°C
Wind Pressure Rain since
9am
mm
Weather Cloud Vis
km
Sea
Height
m
Swell
Dir  Spd
kts
Gust
kts
hPa Trend Height
m
Period
s
Dir
25/11:30pm 20.4 - - - 1005.7 - - - - - - - - -
25/11:00pm 20.5 - - - 1006.3 - - - - - - - - -
25/10:30pm 20.6 - - - 1007.1 - - - - - - - - -
25/10:00pm 20.6 - - - 1007.8 - - - - - - - - -

Other Formats:

Comma delimited format used in spreadsheet applications
http://www.bom.gov.au/fwo/IDW60701/IDW60701.95648.axf

JavaScript Object Notation format (JSON) in row-major order
http://www.bom.gov.au/fwo/IDW60701/IDW60701.95648.json